Regional Weather Roundup
Issued by NWS San Diego, CA

Home | Current Version | Previous Version | Text Only | Print | Product List | Glossary On
Versions: 1 2 3 4 5 6 7 8 9 10 11 12 13 14 15 16 17 18 19 20 21 22 23 24 25 26 27 28 29 30 31 32 33 34 35 36 37 38 39 40 41 42 43 44 45 46 47 48 49 50
000
ASUS46 KSGX 242011
RWRSGX

SAN DIEGO HOURLY WEATHER ROUNDUP
NATIONAL WEATHER SERVICE SAN DIEGO CA
100 PM PDT SUN MAY 24 2015

NOTE: "FAIR" INDICATES FEW OR NO CLOUDS BELOW 12,000 FEET WITH NO
SIGNIFICANT WEATHER AND/OR OBSTRUCTIONS TO VISIBILITY.

CAZ042-043-060-061-PZZ750-775-242100-

GREATER SAN DIEGO AREA

CITY           SKY/WX    TMP DP  RH WIND       PRES   REMARKS
LINDBERGH FLD  PTSUNNY   66  48  52 VRB3      30.03F
POINT LOMA       N/A     71  50  46 W8          N/A
NATIONAL CITY    N/A     67  53  59 SW5       30.03F
CHULA VISTA      N/A     66  53  64 W3        29.95F
IMPERIAL BEACH CLOUDY    65  51  60 W10       30.03F
BROWN FIELD    CLOUDY    65  50  58 W12       30.01F
MIRAMAR MCAS   PTSUNNY   68  48  48 VRB3      30.01F
MONTGOMERY FLD CLOUDY    65  50  58 W5        30.02F

$$

NORTH SAN DIEGO COUNTY

CITY           SKY/WX    TMP DP  RH WIND       PRES   REMARKS
CAMP PENDLETON CLOUDY    65  50  58 SW7       30.01F
OCEANSIDE AP   CLOUDY    68  52  56 W10       30.01F
OCEANSIDE HBR    N/A     64  56  76 SW10      30.04F
VISTA            N/A     63  55  75 CALM      30.00F
CARLSBAD       CLOUDY    63  50  62 W9        30.01F
DEL MAR          N/A     67  53  61 CALM      30.04F
LA JOLLA SCRIP   N/A     64   8  11 W6        30.00F
FALLBROOK        N/A     66  59  78 SW5       30.01F
ESCONDIDO        N/A     64  55  73 CALM      30.03F
SAN MARCOS       N/A     65  55  71 CALM      30.00F
POWAY            N/A     65  54  68 W2        30.03F

$$

EAST SAN DIEGO COUNTY

CITY           SKY/WX    TMP DP  RH WIND       PRES   REMARKS
RAMONA         CLOUDY    59  51  75 VRB5      30.01F
SANTEE LAKES     N/A     67  54  63 CALM      30.01F
LA MESA          N/A     65  51  60 CALM      29.96F
JAMUL            N/A     64  52  64 CALM      30.01F
DESCANSO N       N/A     50  49  96 CALM      29.92F
CAMPO            N/A     57  48  72 SW7       29.98F

$$

ORANGE COUNTY AND THE LOS ANGELES BASIN

CITY           SKY/WX    TMP DP  RH WIND       PRES   REMARKS
JOHN WAYNE AP  CLOUDY    66  50  56 SW8       30.01F
SANTA ANA        N/A     69  55  60 CALM      29.96F
HUNTINGTON BCH   N/A     66  56  71 W3        30.04S
LOS ALAMITOS   PTSUNNY   68  53  58 SW10      30.01F
FULLERTON      CLOUDY    68  51  54 CALM      30.00F
LONG BEACH     PTSUNNY   68  51  54 S7        30.01F
L.A. AP        MOSUNNY   65  52  62 W14       30.02F
L.A. DOWNTOWN  CLOUDY    69  52  54 VRB3      30.00F

$$

THE INLAND EMPIRE

CITY           SKY/WX    TMP DP  RH WIND       PRES   REMARKS
CORONA         MOSUNNY   69  53  56 SW13G20   30.00F
CHINO          PTSUNNY   69  52  54 W10       30.01F
ONTARIO        CLOUDY    67  51  56 W10       29.99F
SAN BERNARDINO CLOUDY    63  48  59 S3        30.00F HAZE
RIVERSIDE AP   CLOUDY    67  51  56 VRB5      29.99F
RIV CYN CREST    N/A     65  60  82 S3          N/A
MORENO VALLEY    N/A     63  57  83 CALM      29.97F
MARCH ARB      CLOUDY    63  52  67 E3        30.00F
HORSETHIEF CYN   N/A     65  50  58 E1        29.97F
PERRIS           N/A     62  56  79 E2          N/A
MENIFEE          N/A     66  56  69 E2        30.06F
FRENCH VALLEY  CLOUDY    63  52  67 CALM      30.01F
TEMECULA         N/A     66  56  70 CALM      29.95F

$$

SAN BERNARDINO AND RIVERSIDE COUNTY MOUNTAINS

CITY           SKY/WX    TMP DP  RH WIND       PRES   REMARKS
BIG BEAR AP    SUNNY     55  32  41 NE3       30.09F
PINE COVE        N/A     59  45  59 W3        30.02F

$$

SOUTHERN DESERT INCLUDING THE COACHELLA VALLEY

CITY           SKY/WX    TMP DP  RH WIND       PRES   REMARKS
PALM SPRINGS   SUNNY     82  48  30 N20G28    29.88F
THOUSAND PALMS   N/A     80  50  34 NW6       29.86F
PALM DESERT      N/A     85  52  32 N3        30.16F
THERMAL        SUNNY     86  46  24 MISG      29.83F
BLYTHE         SUNNY     80  49  33 VRB6      29.86F
IMPERIAL AP    MOSUNNY   83  47  28 NW12      29.85F
EL CENTRO NAS  SUNNY     83  44  25 VRB7G17   29.87F
YUMA AZ        SUNNY     81  47  30 W7        29.87F
MEXICALI       SUNNY     81  45  28 W13       29.87F

$$

UPPER DESERT

CITY           SKY/WX    TMP DP  RH WIND       PRES   REMARKS
VICTORVILLE AP SUNNY     73  39  29 CALM      29.96F
HESPERIA         N/A     73  46  38 SW2       30.05F
APPLE VALLEY     N/A     76  41  28 NW2       29.98F
PALMDALE       SUNNY     75  41  29 VRB3      29.95F
LANCASTER      SUNNY     78  42  27 S6        29.94F
EDWARDS AFB    MOSUNNY   78  40  25 VRB5      29.91F
DAGGETT        SUNNY     79  41  25 VRB6      29.90F
29 PALMS N     MOSUNNY   79  44  28 NE9       29.96F
NEEDLES        SUNNY     86  36  16 CALM      29.84F

$$

REGIONAL REPORTS

CITY           SKY/WX    TMP DP  RH WIND       PRES   REMARKS
SANTA BARBARA  MOSUNNY   67  50  54 SW8       30.01F
SANDBERG       PTSUNNY   65  44  46 MISG      30.06S
LAS VEGAS NV   MOSUNNY   79  44  28 S8        29.84F
PHOENIX AZ     PTSUNNY   81  40  23 SW5       29.86F
TIJUANA        CLOUDY    64  46  52 SW9       30.04
ENSENADA NW      N/A     64  32  29 W10       30.01S

$$

OFFSHORE ISLANDS

CITY           SKY/WX    TMP DP  RH WIND       PRES   REMARKS
CATALINA ARPT  CLOUDY    56  51  84 SW10      30.04F
SAN NICOLAS IS PTSUNNY  N/A N/A N/A NW23G32   30.04S

$$

MARINE AND OFFSHORE BUOY REPORTS

STATION/POSITION SKY/WX   TEMP    WIND        PRES    SWELL
                          AIR SEA DIR/SP/G            HT/PER/DIR
                          (F)     (DEG/KT/KT) (MB)    (FT/S/D)
TANNER BANKS               59 61  320/ 17/ 19 1017.7F   3/320/ 8
S CLEMENTE BASIN           60 62  290/ 14/ 17 1016.9F   3/230/17
SAN NICOLAS IS.               58                N/A     3/230/13
SO. S. ROSA ISLA           57 59  310/ 14/ 17 1017.0F   5/ 8
W. S. BARBARA CH           55 54  310/ 17/ 21 1016.7F   5/320/ 7
M. S. BARBARA CH           58 58  270/  8/ 12 1017.5S
S. MONICA BASIN            59 63  230/  2/  4 1016.9F   3/190/17
S PEDRO CHANNEL               63                N/A     2/210/18
DANA POINT                    65                N/A     2/180/13
OCEANSIDE OFFSHR              66                N/A     2/200/17
TORREY PINES OTR              67                N/A     2/220/18
LA JOLLA 1                 64 66  310/  4/  5 1016.8F
MISSION BAY BUOY              67                N/A     2/210/17
SAN DIEGO BAY                 69              1017.3F
POINT LOMA SOUTH              65                N/A     2/200/17

$$



USA.gov is the U.S. government's official web portal to all federal, state and local government web resources and services.